Regional Weather Roundup
Issued by NWS Burlington, VT

Home | Current Version | Previous Version | Graphics & Text | Print | Product List | Glossary On
Versions: 1 2 3 4 5 6 7 8 9 10 11 12 13 14 15 16 17 18 19 20 21 22 23 24 25 26 27 28 29 30 31 32 33 34 35 36 37 38 39 40 41 42 43 44 45 46 47 48 49 50
000
ASUS41 KBTV 251230
RWRBTV
VERMONT REGIONAL WEATHER ROUNDUP
NATIONAL WEATHER SERVICE BURLINGTON VT
800 AM EDT THU AUG 25 2016

NOTE: "FAIR" INDICATES FEW OR NO CLOUDS BELOW 12,000 FEET WITH NO
SIGNIFICANT WEATHER AND/OR OBSTRUCTIONS TO VISIBILITY.

* THESE REPORTS ARE NOT UNDER NWS QUALITY CONTROL AND/OR DO NOT
  REPORT WEATHER SUCH AS PRECIPITATION AND FOG.

VTZ001>019-251300-
_____VERMONT_____


CITY           SKY/WX    TMP DP  RH WIND       PRES   REMARKS
BURLINGTON     CLOUDY    73  60  63 S12G18    29.97F
6HR MIN TEMP:  72; 6HR MAX TEMP:  74;

MONTPELIER     CLOUDY    68  60  75 S8        30.07S
6HR MIN TEMP:  59; 6HR MAX TEMP:  69;

MORRISVILLE    CLOUDY    68  62  81 CALM      30.02R
6HR MIN TEMP:  59; 6HR MAX TEMP:  68;

ST. JOHNSBURY*   N/A     65  58  78 MISG      30.01F
6HR MIN TEMP:  59; 6HR MAX TEMP:  65;

LYNDONVILLE*   FAIR      64  60  88 CALM      30.06R
6HR MIN TEMP:  61; 6HR MAX TEMP:  65;

MIDDLEBURY*    FAIR      71  61  70 SE3       30.02S
6HR MIN TEMP:  69; 6HR MAX TEMP:  74;

RUTLAND*       PTSUNNY   67  60  78 SE7       30.05F
6HR MIN TEMP:  61; 6HR MAX TEMP:  67;

SPRINGFIELD    CLOUDY    61  58  90 CALM      30.08F
6HR MIN TEMP:  56; 6HR MAX TEMP:  61;

HIGHGATE*      FAIR      73  63  71 S8G16     29.94F
6HR MIN TEMP:  71; 6HR MAX TEMP:  73;

NEWPORT*       FAIR      67  60  80 S6        30.00S
6HR MIN TEMP:  64; 6HR MAX TEMP:  66;

BENNINGTON     MOSUNNY   69  63  81 CALM      30.07F
6HR MIN TEMP:  58; 6HR MAX TEMP:  69;

SUTTON*          N/A     63 N/A N/A MISG        N/A
MT. MANSFIELD*   N/A     61 N/A N/A NW25        N/A

_____LAKE CHAMPLAIN_____


CITY           SKY/WX    TMP DP  RH WIND       PRES   REMARKS
BURTON ISLAND*   N/A     72  64  78 S16         N/A
COLCHESTER RF*   N/A     72  64  78 S25         N/A
DIAMOND ISL*     N/A     70  63  78 SE21        N/A

$$

NYZ007-026>031-035-052-083-087-251300-
_____NORTHERN NEW YORK_____


CITY           SKY/WX    TMP DP  RH WIND       PRES   REMARKS
PLATTSBURGH    CLOUDY    71  65  81 S3        29.95F
6HR MIN TEMP:  61; 6HR MAX TEMP:  71;

SARANAC LAKE   CLOUDY    68  60  75 SW12      30.01S
6HR MIN TEMP:  64; 6HR MAX TEMP:  68;

MASSENA        CLOUDY    75  63  66 SW10      29.92S
6HR MIN TEMP:  69; 6HR MAX TEMP:  75; 6HR PCP: TRACE;

OGDENSBURG*    MOSUNNY   73  64  73 S7        29.92S
WATERTOWN      LGT RAIN  72  65  78 S9        29.94S
6HR MIN TEMP:  72; 6HR MAX TEMP:  76; 6HR PCP: TRACE;

FT DRUM        CLOUDY    75  65  72 S15       29.95S
6HR MIN TEMP:  74; 6HR MAX TEMP:  75;

GLENS FALLS    CLOUDY    68  62  81 S7        30.05S
6HR MIN TEMP:  61; 6HR MAX TEMP:  68;


$$
NHZ002-005-011-251300-
_____NEW HAMPSHIRE_____


CITY           SKY/WX    TMP DP  RH WIND       PRES   REMARKS
LEBANON        CLOUDY    69  62  78 S5        30.05F
6HR MIN TEMP:  58; 6HR MAX TEMP:  69;

KEENE          CLOUDY    62  60  93 CALM      30.09F
6HR MIN TEMP:  55; 6HR MAX TEMP:  62;

MT WASHINGTON  FOG       52  52 100 W38G44      N/A  VSB 0
6HR MIN TEMP:  50; 6HR MAX TEMP:  55;

PLYMOUTH       FOG       61  60  98 CALM      30.06S VSB 1/4
6HR MIN TEMP:  59; 6HR MAX TEMP:  61;

WHITEFIELD     SUNNY     60  57  89 CALM      30.04F
6HR MIN TEMP:  54; 6HR MAX TEMP:  61;


$$

_____REGIONAL QUEBEC LOCATIONS_____


CITY           SKY/WX    TMP DP  RH WIND       PRES   REMARKS
MONTREAL       LGT RAIN  73  64  73 S15       29.89S
QUEBEC CITY    LGT RAIN  68  66  94 SW2       29.88F
SHERBROOKE     CLOUDY    70  63  78 SW3       29.96F

_____REGIONAL ONTARIO LOCATIONS_____


CITY           SKY/WX    TMP DP  RH WIND       PRES   REMARKS
OTTAWA         CLOUDY    70  66  88 S6        29.89S

______KEY______
VSB  - VISIBILITY IN MILES
WCI  - WIND CHILL INDEX
HX   - HEAT INDEX
$$
NNNN



USA.gov is the U.S. government's official web portal to all federal, state and local government web resources and services.